| time (UTC) | temp C | wind direction | speed KPH | gust KPH | rain 1hr cm | rain 24hr cm | rain mn cm | humidity % | barometer mb |
| 20260504050451 | 20 | 328 | 0.0 | 4.8 | 0.00 | 0.00 | 0.00 | 99 | 1021.9 |
| 20260504045948 | 20 | 233 | 0.0 | 9.7 | 0.00 | 0.00 | 0.00 | 99 | 1022.2 |
| 20260504045443 | 20 | 172 | 0.0 | 8.0 | 0.00 | 0.00 | 0.00 | 99 | 1022.2 |
| 20260504044940 | 20 | 247 | 0.0 | 6.4 | 0.00 | 0.00 | 0.00 | 99 | 1022.2 |
| 20260504044437 | 20 | 254 | 0.0 | 9.7 | 0.00 | 0.00 | 0.00 | 99 | 1022.1 |
| 20260504043935 | 20 | 103 | 0.0 | 9.7 | 0.00 | 0.00 | 0.00 | 99 | 1022.3 |
| 20260504043432 | 20 | 263 | 1.6 | 9.7 | 0.00 | 0.00 | 0.00 | 99 | 1022.3 |
| 20260504042929 | 20 | 192 | 1.6 | 11.3 | 0.00 | 0.00 | 0.00 | 99 | 1022.4 |
| 20260504042426 | 20 | 183 | 0.0 | 3.2 | 0.00 | 0.00 | 0.00 | 99 | 1022.3 |
| 20260504041922 | 20 | 163 | 3.2 | 6.4 | 0.00 | 0.00 | 0.00 | 99 | 1022.3 |
| 20260504041418 | 20 | 90 | 3.2 | 8.0 | 0.00 | 0.00 | 0.00 | 99 | 1022.3 |
| 20260504040914 | 20 | 228 | 0.0 | 3.2 | 0.00 | 0.00 | 0.00 | 99 | 1022.3 |
| 20260504040413 | 21 | 207 | 0.0 | 11.3 | 0.00 | 0.00 | 0.00 | 99 | 1022.3 |
| 20260504035908 | 20 | 123 | 3.2 | 4.8 | 0.00 | 0.00 | 0.00 | 99 | 1022.4 |
| 20260504035406 | 20 | 112 | 4.8 | 6.4 | 0.00 | 0.00 | 0.00 | 99 | 1022.5 |
| 20260504034902 | 21 | 109 | 0.0 | 4.8 | 0.00 | 0.00 | 0.00 | 99 | 1022.5 |
| 20260504034359 | 21 | 278 | 1.6 | 6.4 | 0.00 | 0.00 | 0.00 | 99 | 1022.2 |
| 20260504033856 | 21 | 203 | 0.0 | 3.2 | 0.00 | 0.00 | 0.00 | 99 | 1022.1 |
| 20260504033354 | 21 | 255 | 0.0 | 6.4 | 0.00 | 0.00 | 0.00 | 99 | 1022.2 |
| 20260504032851 | 21 | 151 | 1.6 | 6.4 | 0.00 | 0.00 | 0.00 | 99 | 1022.0 |
| 20260504032348 | 21 | 220 | 0.0 | 6.4 | 0.00 | 0.00 | 0.00 | 99 | 1022.1 |
| 20260504031844 | 21 | 132 | 0.0 | 8.0 | 0.00 | 0.00 | 0.00 | 99 | 1022.2 |
| 20260504031342 | 21 | 180 | 1.6 | 9.7 | 0.00 | 0.00 | 0.00 | 99 | 1022.0 |
| 20260504030838 | 21 | 81 | 0.0 | 8.0 | 0.00 | 0.00 | 0.00 | 99 | 1022.1 |
| 20260504030336 | 21 | 160 | 1.6 | 8.0 | 0.00 | 0.00 | 0.00 | 99 | 1021.8 |
| 20260504025832 | 21 | 217 | 3.2 | 6.4 | 0.00 | 0.00 | 0.00 | 99 | 1021.9 |
| 20260504025329 | 21 | 220 | 3.2 | 3.2 | 0.00 | 0.00 | 0.00 | 99 | 1021.9 |
| 20260504024825 | 22 | 148 | 0.0 | 4.8 | 0.00 | 0.00 | 0.00 | 99 | 1022.0 |
| 20260504024322 | 22 | 239 | 8.0 | 8.0 | 0.00 | 0.00 | 0.00 | 99 | 1022.1 |
| 20260504023819 | 22 | 270 | 0.0 | 11.3 | 0.00 | 0.00 | 0.00 | 99 | 1022.0 |
| 20260504023315 | 22 | 139 | 0.0 | 8.0 | 0.00 | 0.00 | 0.00 | 99 | 1022.1 |
| 20260504022811 | 22 | 176 | 3.2 | 6.4 | 0.00 | 0.00 | 0.00 | 99 | 1022.1 |
| 20260504022308 | 22 | 98 | 3.2 | 14.5 | 0.00 | 0.00 | 0.00 | 99 | 1022.2 |
| 20260504021804 | 22 | 99 | 0.0 | 8.0 | 0.00 | 0.00 | 0.00 | 99 | 1021.9 |
| 20260504021302 | 22 | 221 | 3.2 | 8.0 | 0.00 | 0.00 | 0.00 | 99 | 1022.1 |
| 20260504020759 | 22 | 254 | 1.6 | 4.8 | 0.00 | 0.00 | 0.00 | 99 | 1021.8 |
| 20260504020255 | 22 | 325 | 0.0 | 6.4 | 0.00 | 0.00 | 0.00 | 99 | 1021.7 |
| 20260504015751 | 23 | 117 | 0.0 | 9.7 | 0.00 | 0.00 | 0.00 | 99 | 1021.9 |
| 20260504015248 | 23 | 195 | 0.0 | 6.4 | 0.00 | 0.00 | 0.00 | 99 | 1021.9 |
| 20260504014744 | 23 | 146 | 3.2 | 9.7 | 0.00 | 0.00 | 0.00 | 99 | 1021.9 |
| 20260504014240 | 23 | 188 | 0.0 | 6.4 | 0.00 | 0.00 | 0.00 | 99 | 1021.8 |
| 20260504013738 | 23 | 160 | 0.0 | 9.7 | 0.00 | 0.00 | 0.00 | 99 | 1021.8 |
| 20260504013236 | 23 | 146 | 4.8 | 12.9 | 0.00 | 0.00 | 0.00 | 99 | 1021.8 |
| 20260504012732 | 23 | 98 | 0.0 | 4.8 | 0.00 | 0.00 | 0.00 | 99 | 1021.9 |
| 20260504012230 | 23 | 249 | 4.8 | 9.7 | 0.00 | 0.00 | 0.00 | 99 | 1021.7 |
| 20260504011727 | 23 | 120 | 0.0 | 6.4 | 0.00 | 0.00 | 0.00 | 99 | 1021.5 |
| 20260504011223 | 23 | 270 | 1.6 | 12.9 | 0.00 | 0.00 | 0.00 | 99 | 1021.7 |
| 20260504010719 | 23 | 200 | 9.7 | 9.7 | 0.00 | 0.00 | 0.00 | 99 | 1021.7 |
| 20260504010215 | 23 | 157 | 0.0 | 9.7 | 0.00 | 0.00 | 0.00 | 99 | 1021.4 |
| 20260504005712 | 24 | 203 | 1.6 | 4.8 | 0.00 | 0.00 | 0.00 | 99 | 1021.5 |
| 20260504005209 | 24 | 168 | 0.0 | 6.4 | 0.00 | 0.00 | 0.00 | 99 | 1021.7 |
| 20260504004707 | 24 | 209 | 8.0 | 8.0 | 0.00 | 0.00 | 0.00 | 99 | 1021.4 |
| 20260504004204 | 25 | 124 | 0.0 | 4.8 | 0.00 | 0.00 | 0.00 | 99 | 1021.4 |
| 20260504003700 | 25 | 245 | 3.2 | 14.5 | 0.00 | 0.00 | 0.00 | 99 | 1021.6 |
| 20260504003157 | 26 | 198 | 1.6 | 8.0 | 0.00 | 0.00 | 0.00 | 99 | 1021.5 |
| 20260504002654 | 26 | 117 | 0.0 | 11.3 | 0.00 | 0.00 | 0.00 | 99 | 1021.5 |
| 20260504002151 | 26 | 228 | 0.0 | 12.9 | 0.00 | 0.00 | 0.00 | 99 | 1021.4 |
| 20260504001649 | 26 | 236 | 3.2 | 17.7 | 0.00 | 0.00 | 0.00 | 99 | 1021.5 |
| 20260504001145 | 26 | 206 | 0.0 | 17.7 | 0.00 | 0.00 | 0.00 | 99 | 1021.6 |
| 20260504000642 | 27 | 250 | 0.0 | 14.5 | 0.00 | 0.00 | 0.00 | 99 | 1021.5 |
| 20260504000139 | 26 | 139 | 3.2 | 11.3 | 0.00 | 0.00 | 0.00 | 99 | 1021.6 |
| 20260503235637 | 27 | 139 | 3.2 | 16.1 | 0.00 | 0.00 | 0.00 | 99 | 1021.6 |
| 20260503235134 | 27 | 120 | 1.6 | 9.7 | 0.00 | 0.00 | 0.00 | 99 | 1021.7 |
| 20260503234632 | 27 | 206 | 0.0 | 9.7 | 0.00 | 0.00 | 0.00 | 99 | 1021.8 |
| 20260503234130 | 27 | 227 | 4.8 | 9.7 | 0.00 | 0.00 | 0.00 | 99 | 1021.6 |
| 20260503233627 | 27 | 194 | 0.0 | 14.5 | 0.00 | 0.00 | 0.00 | 99 | 1021.6 |
| 20260503233122 | 27 | 220 | 4.8 | 16.1 | 0.00 | 0.00 | 0.00 | 99 | 1022.0 |
| 20260503232619 | 27 | 217 | 6.4 | 12.9 | 0.00 | 0.00 | 0.00 | 99 | 1021.7 |
| 20260503232116 | 27 | 225 | 4.8 | 17.7 | 0.00 | 0.00 | 0.00 | 99 | 1021.9 |
| 20260503231615 | 28 | 110 | 0.0 | 24.1 | 0.00 | 0.00 | 0.00 | 99 | 1021.9 |
| 20260503231111 | 27 | 240 | 4.8 | 12.9 | 0.00 | 0.00 | 0.00 | 99 | 1021.7 |
| 20260503230609 | 28 | 270 | 0.0 | 16.1 | 0.00 | 0.00 | 0.00 | 99 | 1022.2 |
| 20260503230105 | 28 | 171 | 3.2 | 14.5 | 0.00 | 0.00 | 0.00 | 99 | 1022.0 |
| 20260503225602 | 27 | 148 | 4.8 | 9.7 | 0.00 | 0.00 | 0.00 | 99 | 1022.0 |
| 20260503225057 | 28 | 126 | 0.0 | 8.0 | 0.00 | 0.00 | 0.00 | 99 | 1021.9 |
| 20260503224555 | 28 | 225 | 0.0 | 14.5 | 0.00 | 0.00 | 0.00 | 99 | 1022.0 |
| 20260503224053 | 28 | 195 | 4.8 | 9.7 | 0.00 | 0.00 | 0.00 | 99 | 1022.0 |
| 20260503223550 | 27 | 218 | 3.2 | 16.1 | 0.00 | 0.00 | 0.00 | 99 | 1022.0 |
| 20260503223045 | 27 | 203 | 8.0 | 20.9 | 0.00 | 0.00 | 0.00 | 99 | 1022.0 |
| 20260503222544 | 27 | 117 | 3.2 | 20.9 | 0.00 | 0.00 | 0.00 | 99 | 1022.3 |
| 20260503222041 | 27 | 257 | 3.2 | 22.5 | 0.00 | 0.00 | 0.00 | 99 | 1022.3 |
| 20260503221539 | 28 | 240 | 4.8 | 12.9 | 0.00 | 0.00 | 0.00 | 99 | 1022.2 |
| 20260503221037 | 28 | 132 | 0.0 | 11.3 | 0.00 | 0.00 | 0.00 | 99 | 1022.4 |
| 20260503220533 | 28 | 239 | 0.0 | 20.9 | 0.00 | 0.00 | 0.00 | 99 | 1022.6 |
| 20260503220029 | 28 | 107 | 3.2 | 11.3 | 0.00 | 0.00 | 0.00 | 99 | 1022.5 |
| 20260503215527 | 27 | 239 | 4.8 | 11.3 | 0.00 | 0.00 | 0.00 | 99 | 1022.3 |
| 20260503215024 | 27 | 251 | 14.5 | 19.3 | 0.00 | 0.00 | 0.00 | 99 | 1022.5 |
| 20260503214522 | 27 | 205 | 6.4 | 22.5 | 0.00 | 0.00 | 0.00 | 99 | 1022.6 |
| 20260503214018 | 28 | 251 | 8.0 | 14.5 | 0.00 | 0.00 | 0.00 | 99 | 1022.6 |
| 20260503213517 | 28 | 129 | 3.2 | 12.9 | 0.00 | 0.00 | 0.00 | 99 | 1022.7 |
| 20260503213013 | 28 | 162 | 0.0 | 17.7 | 0.00 | 0.00 | 0.00 | 99 | 1022.4 |
| 20260503212510 | 29 | 187 | 3.2 | 9.7 | 0.00 | 0.00 | 0.00 | 99 | 1023.1 |
| 20260503212008 | 28 | 75 | 4.8 | 12.9 | 0.00 | 0.00 | 0.00 | 99 | 1022.8 |
| 20260503211505 | 28 | 109 | 3.2 | 11.3 | 0.00 | 0.00 | 0.00 | 99 | 1022.9 |
| 20260503211000 | 28 | 120 | 3.2 | 17.7 | 0.00 | 0.00 | 0.00 | 99 | 1023.2 |
| 20260503210458 | 28 | 234 | 6.4 | 14.5 | 0.00 | 0.00 | 0.00 | 99 | 1023.1 |
| 20260503205957 | 27 | 102 | 0.0 | 17.7 | 0.00 | 0.00 | 0.00 | 99 | 1023.2 |
| 20260503205455 | 28 | 188 | 3.2 | 16.1 | 0.00 | 0.00 | 0.00 | 99 | 1023.3 |
| 20260503204951 | 28 | 135 | 3.2 | 8.0 | 0.00 | 0.00 | 0.00 | 99 | 1023.5 |
| 20260503204448 | 28 | 218 | 14.5 | 17.7 | 0.00 | 0.00 | 0.00 | 99 | 1023.5 |
| 20260503203945 | 28 | 166 | 4.8 | 6.4 | 0.00 | 0.00 | 0.00 | 99 | 1023.4 |
| 20260503203443 | 28 | 270 | 4.8 | 6.4 | 0.00 | 0.00 | 0.00 | 99 | 1023.8 |
| 20260503202939 | 28 | 139 | 0.0 | 8.0 | 0.00 | 0.00 | 0.00 | 99 | 1023.7 |
| 20260503202438 | 27 | 243 | 1.6 | 3.2 | 0.00 | 0.00 | 0.00 | 99 | 1024.1 |
| 20260503201936 | 27 | 203 | 3.2 | 12.9 | 0.00 | 0.00 | 0.00 | 99 | 1024.2 |
| 20260503201433 | 27 | 180 | 0.0 | 12.9 | 0.00 | 0.00 | 0.00 | 99 | 1023.9 |
| 20260503200930 | 27 | 111 | 1.6 | 9.7 | 0.00 | 0.00 | 0.00 | 99 | 1024.2 |
| 20260503200426 | 27 | 263 | 11.3 | 14.5 | 0.00 | 0.00 | 0.00 | 99 | 1024.2 |
| 20260503195923 | 27 | 127 | 0.0 | 4.8 | 0.00 | 0.00 | 0.00 | 99 | 1024.3 |
| 20260503195421 | 27 | 303 | 8.0 | 14.5 | 0.00 | 0.00 | 0.00 | 99 | 1024.7 |
| 20260503194917 | 27 | 188 | 4.8 | 22.5 | 0.00 | 0.00 | 0.00 | 99 | 1024.4 |
| 20260503194413 | 27 | 258 | 8.0 | 12.9 | 0.00 | 0.00 | 0.00 | 99 | 1024.7 |
| 20260503193909 | 27 | 228 | 3.2 | 17.7 | 0.00 | 0.00 | 0.00 | 99 | 1024.6 |
| 20260503193405 | 27 | 245 | 11.3 | 22.5 | 0.00 | 0.00 | 0.00 | 99 | 1024.8 |
| 20260503192900 | 27 | 228 | 6.4 | 16.1 | 0.00 | 0.00 | 0.00 | 99 | 1024.9 |
| 20260503192356 | 27 | 140 | 0.0 | 14.5 | 0.00 | 0.00 | 0.00 | 99 | 1024.9 |
| 20260503191853 | 27 | 210 | 3.2 | 12.9 | 0.00 | 0.00 | 0.00 | 99 | 1025.2 |
| 20260503191350 | 26 | 219 | 4.8 | 19.3 | 0.00 | 0.00 | 0.00 | 99 | 1025.2 |
| 20260503190847 | 27 | 234 | 12.9 | 14.5 | 0.00 | 0.00 | 0.00 | 99 | 1025.1 |
| 20260503190344 | 27 | 135 | 3.2 | 12.9 | 0.00 | 0.00 | 0.00 | 99 | 1025.1 |
| 20260503185841 | 27 | 246 | 4.8 | 8.0 | 0.00 | 0.00 | 0.00 | 99 | 1025.1 |
| 20260503185337 | 26 | 258 | 6.4 | 20.9 | 0.00 | 0.00 | 0.00 | 99 | 1025.2 |
| 20260503184837 | 26 | 257 | 6.4 | 16.1 | 0.00 | 0.00 | 0.00 | 99 | 1025.5 |
| 20260503184333 | 26 | 249 | 8.0 | 16.1 | 0.00 | 0.00 | 0.00 | 99 | 1025.6 |
| 20260503183829 | 27 | 248 | 4.8 | 6.4 | 0.00 | 0.00 | 0.00 | 99 | 1025.7 |
| 20260503183326 | 26 | 217 | 3.2 | 27.4 | 0.00 | 0.00 | 0.00 | 99 | 1025.9 |
| 20260503182824 | 26 | 258 | 4.8 | 16.1 | 0.00 | 0.00 | 0.00 | 99 | 1026.1 |
| 20260503182323 | 26 | 196 | 0.0 | 8.0 | 0.00 | 0.00 | 0.00 | 99 | 1025.9 |
| 20260503181820 | 26 | 216 | 16.1 | 20.9 | 0.00 | 0.00 | 0.00 | 99 | 1026.1 |
| 20260503181317 | 26 | 202 | 3.2 | 16.1 | 0.00 | 0.00 | 0.00 | 99 | 1026.0 |
| 20260503180813 | 26 | 199 | 4.8 | 17.7 | 0.00 | 0.00 | 0.00 | 99 | 1026.0 |
| 20260503180311 | 27 | 152 | 0.0 | 6.4 | 0.00 | 0.00 | 0.00 | 99 | 1026.5 |
| 20260503175807 | 26 | 242 | 6.4 | 16.1 | 0.00 | 0.00 | 0.00 | 99 | 1026.5 |
| 20260503175306 | 26 | 216 | 0.0 | 20.9 | 0.00 | 0.00 | 0.00 | 99 | 1026.5 |
| 20260503174800 | 25 | 314 | 6.4 | 20.9 | 0.00 | 0.00 | 0.00 | 99 | 1026.7 |
| 20260503174259 | 26 | 227 | 4.8 | 22.5 | 0.00 | 0.00 | 0.00 | 99 | 1026.7 |
| 20260503173754 | 26 | 135 | 4.8 | 12.9 | 0.00 | 0.00 | 0.00 | 99 | 1026.8 |
| 20260503173250 | 26 | 246 | 6.4 | 14.5 | 0.00 | 0.00 | 0.00 | 99 | 1027.2 |
| 20260503172747 | 25 | 220 | 4.8 | 11.3 | 0.00 | 0.00 | 0.00 | 99 | 1027.2 |
| 20260503172244 | 25 | 232 | 6.4 | 24.1 | 0.00 | 0.00 | 0.00 | 99 | 1027.2 |
| 20260503171741 | 25 | 241 | 14.5 | 19.3 | 0.00 | 0.00 | 0.00 | 99 | 1026.9 |
| 20260503171238 | 25 | 236 | 6.4 | 17.7 | 0.00 | 0.00 | 0.00 | 99 | 1026.9 |
| 20260503170735 | 25 | 195 | 0.0 | 20.9 | 0.00 | 0.00 | 0.00 | 99 | 1027.2 |
| 20260503170232 | 25 | 242 | 9.7 | 17.7 | 0.00 | 0.00 | 0.00 | 99 | 1027.3 |
| 20260503160154 | 23 | 261 | 12.9 | 14.5 | 0.00 | 0.00 | 0.00 | 99 | 1027.7 |
| 20260503150624 | 22 | 243 | 3.2 | 17.7 | 0.00 | 0.00 | 0.00 | 99 | 1027.6 |
| 20260503150120 | 22 | 297 | 4.8 | 17.7 | 0.00 | 0.00 | 0.00 | 99 | 1027.6 |
| 20260503131014 | 15 | 4 | 0.0 | 0.0 | 0.00 | 0.00 | 0.00 | 99 | 1027.4 |
| 20260503130511 | 15 | 4 | 0.0 | 0.0 | 0.00 | 0.00 | 0.00 | 99 | 1027.5 |
| 20260503110401 | 11 | 0 | 0.0 | 0.0 | 0.00 | 0.00 | 0.00 | 99 | 1026.6 |
| 20260503090252 | 12 | 23 | 0.0 | 0.0 | 0.00 | 0.00 | 0.00 | 99 | 1026.4 |
| 20260503081220 | 12 | 90 | 0.0 | 0.0 | 0.00 | 0.00 | 0.00 | 99 | 1026.3 |
| 20260503080715 | 13 | 90 | 0.0 | 0.0 | 0.00 | 0.00 | 0.00 | 99 | 1026.6 |
| 20260503080213 | 13 | 270 | 0.0 | 0.0 | 0.00 | 0.00 | 0.00 | 99 | 1026.1 |
| 20260503072649 | 14 | 270 | 0.0 | 0.0 | 0.00 | 0.00 | 0.00 | 99 | 1026.4 |
| 20260503072146 | 14 | 270 | 0.0 | 0.0 | 0.00 | 0.00 | 0.00 | 99 | 1026.4 |
| 20260503071643 | 15 | 270 | 0.0 | 1.6 | 0.00 | 0.00 | 0.00 | 99 | 1026.6 |
| 20260503071139 | 15 | 279 | 0.0 | 0.0 | 0.00 | 0.00 | 0.00 | 99 | 1026.5 |